Regional Weather Roundup
Issued by NWS Little Rock, AR

Home | Current Version | Previous Version | Text Only | Print | Product List | Glossary Off
Versions: 1 2 3 4 5 6 7 8 9 10 11 12 13 14 15 16 17 18 19 20 21 22 23 24 25 26 27 28 29 30 31 32

000
ASUS44 KLZK 230005
RWRLZK

WEATHER ROUNDUP FOR ARKANSAS
NATIONAL WEATHER SERVICE LITTLE ROCK AR
700 PM CDT WED MAR 22 2017

NOTE: "FAIR" INDICATES FEW OR NO CLOUDS BELOW 12,000 FEET WITH NO
SIGNIFICANT WEATHER AND/OR OBSTRUCTIONS TO VISIBILITY.

ARZ001-003-010-029-230100-
NORTHWEST ARKANSAS

CITY           SKY/WX    TMP DP  RH WIND       PRES   REMARKS
FAYETTEVILLE   CLOUDY    59  46  62 SE8       30.17R
6HR MIN TEMP:  56; 6HR MAX TEMP:  59;

FORT SMITH     MOCLDY    61  44  53 E16G23    30.15S
6HR MIN TEMP:  57; 6HR MAX TEMP:  64;

HARRISON       CLOUDY    54  38  54 SE8       30.23S
6HR MIN TEMP:  49; 6HR MAX TEMP:  55;

BENTONVILLE    CLOUDY    55  39  54 E10G17    30.18F
6HR MIN TEMP:  52; 6HR MAX TEMP:  57;

ROGERS         CLOUDY    54  42  64 E15       30.18F
6HR MIN TEMP:  51; 6HR MAX TEMP:  56;

SILOAM SPGS    CLOUDY    55  39  54 E8        30.15F
6HR MIN TEMP:  55; 6HR MAX TEMP:  57;

HIGHFILL       CLOUDY    56  42  59 E10       30.16F
6HR MIN TEMP:  53; 6HR MAX TEMP:  58;

SPRINGDALE     CLOUDY    55  43  62 E12       30.19S
$$

ARZ004-005-016-230100-
NORTH CENTRAL ARKANSAS

CITY           SKY/WX    TMP DP  RH WIND       PRES   REMARKS
BATESVILLE     PTCLDY    54  37  54 NE13      30.28F
6HR MIN TEMP:  54; 6HR MAX TEMP:  59;

FLIPPIN        CLOUDY    57  28  33 E6        30.23R
6HR MIN TEMP:  54; 6HR MAX TEMP:  57;

MTN HOME       CLOUDY    56  30  37 SE13      30.24R
6HR MIN TEMP:  53; 6HR MAX TEMP:  58;

$$

ARZ040-041-230100-
WEST CENTRAL ARKANSAS

CITY           SKY/WX    TMP DP  RH WIND       PRES   REMARKS
MENA           CLEAR     68  54  60 E3        30.16R
MOUNT IDA      CLEAR     64  48  56 VRB6      30.16S
6HR MIN TEMP:  62; 6HR MAX TEMP:  67;

$$

ARZ009-017-025-026-028-230100-
NORTHEAST ARKANSAS

CITY           SKY/WX    TMP DP  RH WIND       PRES   REMARKS
CORNING        FAIR      54  36  50 E14       30.30F
JONESBORO      MOCLDY    53  36  52 NE10      30.28S
6HR MIN TEMP:  53; 6HR MAX TEMP:  57;

NEWPORT        PTCLDY    54  42  64 NE13        N/A
6HR MIN TEMP:  54; 6HR MAX TEMP:  58;

WALNUT RIDGE   CLEAR     52  36  54 NE14      30.28F
6HR MIN TEMP:  52; 6HR MAX TEMP:  57;

BLYTHEVILLE    CLEAR     55  34  45 NE12      30.29F
6HR MIN TEMP:  55; 6HR MAX TEMP:  60;

$$

ARZ022-023-033-042-044-230100-
CENTRAL ARKANSAS

CITY           SKY/WX    TMP DP  RH WIND       PRES   REMARKS
LITTLE ROCK    PTCLDY    59  45  59 NE12      30.24R
6HR MIN TEMP:  58; 6HR MAX TEMP:  64;

CONWAY           N/A     61  43  51 E13       30.22S
SEARCY         MOCLDY    56  38  50 NE14      30.26F
6HR MIN TEMP:  56; 6HR MAX TEMP:  62;

HOT SPRINGS    CLEAR     63  48  58 E10       30.21R
6HR MIN TEMP:  61; 6HR MAX TEMP:  67;

RUSSELLVILLE   MOCLDY    60  43  53 E8        30.21S
6HR MIN TEMP:  56; 6HR MAX TEMP:  63;

CLINTON        MOCLDY    57  39  51 E8        30.24F
$$

ARZ036-230100-
EAST ARKANSAS

CITY           SKY/WX    TMP DP  RH WIND       PRES   REMARKS
WEST MEMPHIS   MOCLDY    58  35  42 NE13      30.24S
6HR MIN TEMP:  56; 6HR MAX TEMP:  64;

$$

ARZ050-053-066-070-073-230100-
SOUTHWEST ARKANSAS

CITY           SKY/WX    TMP DP  RH WIND       PRES   REMARKS
ARKADELPHIA    FAIR      64  51  62 NE7       30.20R
6HR MIN TEMP:  62; 6HR MAX TEMP:  67;

CAMDEN         CLEAR     64  46  52 E6        30.18S
TEXARKANA      CLEAR     72  57  59 E3        30.13S
6HR MIN TEMP:  65; 6HR MAX TEMP:  75;

EL DORADO      CLEAR     69  52  54 NE14      30.16R
6HR MIN TEMP:  68; 6HR MAX TEMP:  77;

DE QUEEN       CLEAR     71  57  61 E9        30.11S
6HR MIN TEMP:  66; 6HR MAX TEMP:  74;

$$

ARZ056-057-069-230100-
SOUTHEAST ARKANSAS

CITY           SKY/WX    TMP DP  RH WIND       PRES   REMARKS
PINE BLUFF     CLEAR     63  47  55 NE9       30.21S
6HR MIN TEMP:  56; 6HR MAX TEMP:  66;

STUTTGART      PTCLDY    61  39  44 NE14      30.24R
6HR MIN TEMP:  59; 6HR MAX TEMP:  64;

MONTICELLO     CLEAR     67  50  54 NE6       30.19S
6HR MIN TEMP:  65; 6HR MAX TEMP:  71;


$$






USA.gov is the U.S. government's official web portal to all federal, state and local government web resources and services.